Regional Weather Roundup
Issued by NWS

Home | Current Version | Previous Version | Graphics & Text | Print | Product List | Glossary On
Versions: 1 2 3 4 5 6 7 8 9 10 11 12 13 14 15 16 17 18 19 20 21 22 23 24 25 26 27 28 29 30 31 32 33 34 35 36 37 38 39 40 41 42 43 44 45 46 47 48 49 50
390
ASUS45 KSLC 230810
RWRUT

UTAH REGIONAL WEATHER ROUNDUP
NATIONAL WEATHER SERVICE SALT LAKE CITY UT
200 AM MDT MON OCT 23 2017

UTZ001>011-023>025-230900-

NORTHERN UTAH

CITY           SKY/WX    TMP DP  RH WIND       PRES   REMARKS
BRIGHAM CITY   MOCLDY    54  33  44 CALM      30.45R
HILL AFB       PTCLDY    55  34  45 N6        30.43R
LOGAN          CLOUDY    54  38  54 N5        30.45R
OGDEN          PTCLDY    54  35  48 N3        30.42R
SALT LAKE CITY PTCLDY    54  37  52 CALM      30.41S
TOOELE VALLEY  PTCLDY    45  32  61 SE7       30.44R
WENDOVER       PTCLDY    58  33  39 W6        30.43R
WEST JORDAN    PTCLDY    49  32  52 CALM      30.43S

$$

UTZ011>015-024>027-230900-

CENTRAL/NORTHEAST UTAH

CITY           SKY/WX    TMP DP  RH WIND       PRES   REMARKS
PROVO AIRPORT  PTCLDY    41  32  70 CALM      30.44R
MOAB/CANYONLAN CLEAR     39  18  42 W7        30.37S WCI  34
DELTA          CLEAR     43  27  52 NE9       30.43R
PRICE          CLEAR     42  19  39 NE7       30.42R
ROOSEVELT      CLEAR     43  27  52 NW3       30.38F
VERNAL         CLOUDY    39  26  59 W3        30.37F

$$

UTZ013>016-019>022-027-230900-

SOUTHERN UTAH

CITY           SKY/WX    TMP DP  RH WIND       PRES   REMARKS
BRYCE CANYON   PTCLDY    32  17  54 W6        30.53S WCI  26
CEDAR CITY     PTCLDY    43  20  39 N3        30.43S
MILFORD        CLEAR     43  19  38 W9        30.43R
ST GEORGE      MOSUNNY   54  24  31 E5        30.34R
HANKSVILLE     CLEAR     37  18  44 CALM      30.40S
BLANDING         N/A     44  17  34 N8        30.49R

$$

REGIONAL REPORTS     COLORADO/ARIZONA

CITY           SKY/WX    TMP DP  RH WIND       PRES   REMARKS
CRAIG, CO      CLOUDY    46  30  53 W8        30.40S
GRAND JUNCTION CLOUDY    44  21  40 SE3       30.40S
RIFLE, CO      CLOUDY    38  29  70 S3        30.45R
MONTROSE, CO   CLOUDY    37  24  59 SE10      30.47S WCI  30
CORTEZ, CO     CLOUDY    35  20  54 E6        30.42F WCI  30
COLORADO CITY    N/A     37  23  56 E5        30.44R WCI  34
PAGE, AZ       CLEAR     53  23  31 SW3       30.36F
GRAND CANYON   PTCLDY    30  11  45 NE5       30.48S WCI  25
KINGMAN, AZ    CLEAR     54  27  35 SE7       30.30S
FLAGSTAFF, AZ  PTCLDY    29  13  51 CALM      30.49S

$$

REGIONAL REPORTS    NEVADA/IDAHO/WYOMING

CITY           SKY/WX    TMP DP  RH WIND       PRES   REMARKS
LAS VEGAS, NV  CLEAR     66  30  26 NW5       30.26R
ELY, NY        CLEAR     34  14  43 CALM      30.54R
ELKO, NV       CLEAR     39  29  67 CALM      30.50S
POCATELLO, ID  CLOUDY    48  41  76 SW16      30.44R
BURLEY, ID     MOCLDY    49  43  80 W16       30.43F
FORT BRIDGER,  PTSUNNY   49  31  50 W12G23    30.48R
EVANSTON, WY   CLOUDY    47  31  53 W12       30.47R
ROCK SPRINGS,  CLOUDY    46  28  49 W25G31    30.39R
KEMMERER, WY   CLOUDY    45  32  61 W20G33    30.43R

$$




USA.gov is the U.S. government's official web portal to all federal, state and local government web resources and services.